"Pseudo-MPEC" for C9HYK52

Created 2023 Sep 24 14:22:13 UT using Find_Orb

Click here for an explanation of pseudo-MPECs

 
 Astrometry: 
     C9HYK52*1C2023 09 19.28160300 51 28.292+05 24 37.51   ~9J7q 21.42GVNEOCPG96
     C9HYK52 1C2023 09 19.29200400 51 29.448+05 24 35.89   ~9J7q 22.31GVNEOCPG96
     C9HYK52 1C2023 09 19.29721800 51 30.038+05 24 35.14   ~9J7q 21.94GVNEOCPG96
     C9HYK52 KC2023 09 19.40743300 51 41.627+05 24 16.74   ~9JAM 22.07GVNEOCPV06
     C9HYK52 KC2023 09 19.41060800 51 41.969+05 24 16.24   ~9JAM 22.14GVNEOCPV06
     C9HYK52 KC2023 09 19.41378600 51 42.300+05 24 15.66   ~9JAM 22.04GVNEOCPV06
     C9HYK52 KC2023 09 19.41696400 51 42.631+05 24 15.12   ~9JAM 22.37GVNEOCPV06
     C9HYK52 KC2023 09 20.26107200 53 21.397+05 21 49.39   ~9K6q 22.07GVNEOCPV06
     C9HYK52 KC2023 09 20.26424800 53 21.732+05 21 49.03   ~9K6q 22.39GVNEOCPV06
     C9HYK52 KC2023 09 20.26742500 53 22.060+05 21 48.35   ~9K6q 22.37GVNEOCPV06
     C9HYK52 KC2023 09 20.27060300 53 22.358+05 21 47.99   ~9K6q 21.96GVNEOCPV06
     C9HYK52 KC2023 09 23$hbw%7AstrometrymbI3)X5Y=Q;8gsJPredacted;Toe)XbclickH21
     C9HYK52 KC2023 09 23hA9mX,U't^:/rW:xL-eE1[Pf+V+4VcPD*jkbP!jJ9^31o(0B5OAFH21
     C9HYK52 KC2023 09 231Kf'q*7[[5eK'NU(rZu0m-%O=!FC?WH+M*#XA^m1#8QMt#-o3UVmH21
     C9HYK52 KC2023 09 24*snItkB+:hereMYxforPk?h^PlVBw)p!k@hFv5*J*-DOOOC#bA-SH21
     C9HYK52 KC2023 09 24;v7EhGhe+8@v2cv/xY\hWf=,/to+(FXnkexplanation;3eFL`v8H21

Station data:
(G96) Mt. Lemmon Survey  (N32.442751 W110.788720)  US/Arizona.  Observer E.
   J. Christensen. 1.5-m reflector + 10K CCD.
(H21) Astronomical Research Observatory, Westfield  (N39.483054 W87.968270)
   US/Illinois.  Observer R. Holmes. Measurers S. Foglia, L. Buzzi, T.
   Linder, R. Holmes. 0.76-m f/3.0 astrograph + CCD0.81-m f/4.0 astrograph +
   CCD0.61-m f/4.5 astrograph + CCD0.40-m f/5.32 astrograph + CCD.
(V06) Catalina Sky Survey-Kuiper  (N32.416844 W110.732550)  US/Arizona.
   Observers T. A. Pruyne, B. M. Africano, E. J. Christensen, G. A. Farneth,
   D. C. Fuls, A. R. Gibbs, A. D. Grauer, H. Gröller, J. A. Johnson, R. A.
   Kowalski, S. M. Larson, G. J. Leonard, D. Rankin, R. L. Seaman, F. C.
   Shelly, K. W. Wierzchoś. 1.55-m reflector + CCD.

Orbital elements:  C9HYK52
   Perihelion 2023 Sep 8.46541 +/- 0.189 TT = 11:10:11 (JD 2460195.96541)
Epoch 2023 Sep 24.0 TT = JDT 2460211.5   Earth MOID: 0.2624   Ju: 0.1163
M   2.41672091 +/- 0.08             Ma: 0.0390                   AutoNEOCP
n   0.15557034 +/- 0.00717          Peri.  170.85846 +/- 0.16
a   3.42387721 +/- 0.105            Node   179.36633 +/- 0.040
e   0.6294811 +/- 0.0104            Incl.    3.34661 +/- 0.038
P   6.34                   H 23.77  G  0.15   U  9.4
q 1.26861088 +/- 0.00326    Q 5.57914354 +/- 0.207        (J2000 ecliptic)
From 16 observations 2023 Sept. 19-24; mean residual 0".25
Residuals in arcseconds: 
230919 G96  .62-  .19-    230919 V06  .06-  .05-    230923 H21  .37+  .02-    
230919 G96  .12+  .15-    230920 V06  .06-  .16+    230923 H21  .13-  .20-    
230919 G96  .66+  .06-    230920 V06  .00   .34+    230924 H21  .27-  .11-    
230919 V06  .04+  .09-    230920 V06  .05-  .20+    230924 H21  .09-  .00     
230919 V06  .12+  .04-    230920 V06  .54-  .38+    
230919 V06  .03+  .07-    230923 H21  .34+  .17+    

Ephemerides (geocentric):
Date (UTC) HH   RA             Dec           delta  r     elong  mag " sig PA
---- --------  ------------   ------------  ------ ------ -----  --- --------
2023 09 24 14  01 01 05.825   +05 07 38.15  .28808 1.2835 164.9 22.3 .086  17
2023 09 24 15  01 01 10.051   +05 07 29.03  .28814 1.2836 164.9 22.3 .079  20
2023 09 24 16  01 01 14.271   +05 07 19.90  .28821 1.2837 164.9 22.3 .073  24
2023 09 24 17  01 01 18.486   +05 07 10.75  .28827 1.2837 164.9 22.3 .067  28
2023 09 24 18  01 01 22.696   +05 07 01.60  .28834 1.2838 165.0 22.3 .062  34
2023 09 24 19  01 01 26.902   +05 06 52.43  .28840 1.2839 165.0 22.3 .057  40
2023 09 24 20  01 01 31.102   +05 06 43.25  .28847 1.2840 165.0 22.3 .052  48
2023 09 24 21  01 01 35.297   +05 06 34.06  .28853 1.2840 165.0 22.3 .049  57
2023 09 24 22  01 01 39.488   +05 06 24.86  .28860 1.2841 165.0 22.3 .047  66
2023 09 24 23  01 01 43.673   +05 06 15.65  .28866 1.2842 165.1 22.3 .047  77
2023 09 25 00  01 01 47.854   +05 06 06.43  .28873 1.2843 165.1 22.3 .048  87
2023 09 25 01  01 01 52.029   +05 05 57.19  .28880 1.2844 165.1 22.3 .051  97
2023 09 25 02  01 01 56.200   +05 05 47.95  .28886 1.2844 165.1 22.3 .055 106
2023 09 25 03  01 02 00.366   +05 05 38.69  .28893 1.2845 165.2 22.3 .060 113
2023 09 25 04  01 02 04.526   +05 05 29.42  .28900 1.2846 165.2 22.3 .066 120
2023 09 25 05  01 02 08.682   +05 05 20.15  .28907 1.2847 165.2 22.3 .072 125
2023 09 25 06  01 02 12.833   +05 05 10.86  .28913 1.2848 165.2 22.3 .080 129
2023 09 25 07  01 02 16.978   +05 05 01.56  .28920 1.2848 165.3 22.3 .087 133
2023 09 25 08  01 02 21.119   +05 04 52.25  .28927 1.2849 165.3 22.3 .096 136
2023 09 25 09  01 02 25.255   +05 04 42.93  .28934 1.2850 165.3 22.3 .104 139
2023 09 25 10  01 02 29.386   +05 04 33.60  .28941 1.2851 165.3 22.3 .113 141
2023 09 25 11  01 02 33.512   +05 04 24.25  .28947 1.2852 165.4 22.3 .121 143
2023 09 25 12  01 02 37.633   +05 04 14.90  .28954 1.2852 165.4 22.3 .130 145
2023 09 25 13  01 02 41.749   +05 04 05.54  .28961 1.2853 165.4 22.3 .140 146
2023 09 25 14  01 02 45.860   +05 03 56.17  .28968 1.2854 165.4 22.3 .149 147
2023 09 25 15  01 02 49.966   +05 03 46.79  .28975 1.2855 165.5 22.3 .159 149
2023 09 25 16  01 02 54.067   +05 03 37.40  .28982 1.2856 165.5 22.3 .168 150
2023 09 25 17  01 02 58.163   +05 03 28.00  .28989 1.2856 165.5 22.3 .178 151
2023 09 25 18  01 03 02.255   +05 03 18.59  .28996 1.2857 165.5 22.3 .188 152
2023 09 25 19  01 03 06.341   +05 03 09.16  .29003 1.2858 165.6 22.3 .198 152
2023 09 25 20  01 03 10.422   +05 02 59.73  .29010 1.2859 165.6 22.3 .208 153
2023 09 25 21  01 03 14.499   +05 02 50.29  .29017 1.2860 165.6 22.3 .218 154
2023 09 25 22  01 03 18.570   +05 02 40.85  .29024 1.2860 165.6 22.3 .229 155
2023 09 25 23  01 03 22.637   +05 02 31.39  .29032 1.2861 165.7 22.3 .239 155
2023 09 26 00  01 03 26.698   +05 02 21.92  .29039 1.2862 165.7 22.3 .250 156
2023 09 26 01  01 03 30.755   +05 02 12.44  .29046 1.2863 165.7 22.3 .260 156
2023 09 26 02  01 03 34.807   +05 02 02.96  .29053 1.2864 165.7 22.3 .271 157
2023 09 26 03  01 03 38.854   +05 01 53.46  .29060 1.2865 165.8 22.3 .282 157
2023 09 26 04  01 03 42.895   +05 01 43.96  .29068 1.2865 165.8 22.3 .293 158
2023 09 26 05  01 03 46.932   +05 01 34.44  .29075 1.2866 165.8 22.3 .304 158
2023 09 26 06  01 03 50.964   +05 01 24.92  .29082 1.2867 165.8 22.3 .315 158
2023 09 26 07  01 03 54.991   +05 01 15.39  .29089 1.2868 165.9 22.3 .326 159
2023 09 26 08  01 03 59.013   +05 01 05.85  .29097 1.2869 165.9 22.3 .338 159
2023 09 26 09  01 04 03.030   +05 00 56.30  .29104 1.2870 165.9 22.3 .349 159
2023 09 26 10  01 04 07.042   +05 00 46.75  .29111 1.2871 166.0 22.3 .360 160
2023 09 26 11  01 04 11.050   +05 00 37.18  .29119 1.2871 166.0 22.3 .372 160
2023 09 26 12  01 04 15.052   +05 00 27.61  .29126 1.2872 166.0 22.3 .384 160
2023 09 26 13  01 04 19.049   +05 00 18.03  .29134 1.2873 166.0 22.3 .395 161